GEO-KOMPSAT-2B (45246 NORAD) Tracking and Keplerian Element Data

This shows tracking and keplerian element data for the satellite.

Feedback or suggestion? Click here.




ElementValue
Catalog45246
NameGEO-KOMPSAT-2B
Epoch Orbit46
Epoch Day87.51924317
Epoch Year2020
RAAN332.0633
Inclination0.048
Eccentricity0.0001351
Argument of Perigee338.0372
Mean Anonmoly190.4941
Mean Motion1.00272369
Decay Rate-3.45E-06
L11 45246U 20013B 20087.51924317 -.00000345 00000-0 00000+0 0 9998
L22 45246 0.0480 332.0633 0001351 338.0372 190.4941 1.00272369 469

Live tracking and technical data element details for GEO-KOMPSAT-2B (NORAD 45246). GEO-KOMPSAT-2B can be tracked NOW for your location showing map with azimuth and elevation plus other details from your city location.

Track the satellite on the map from your city or location and see movement details for azimuth, elevation, latitude, longitude, range, height, and movement on the map or in text.







IsCatalogInMostPopularTable: catalog: 45246, numindb: 10
Update: records affected: 1



GetName: 45246 GEO-KOMPSAT-2B

Hit Count: updated at: Tue, 31 Mar 2020 12:23:08 GMT